CW4859 Weather Reports


time (UTC)temp
C
wind
direction
speed
KPH
gust
KPH
rain 1hr
cm
rain 24hr
cm
rain mn
cm
humidity
%
barometer
mb
20260504214953 22 181 9.7 25.7 0.00 0.00 0.00 33 1007.2
20260504214453 22 190 4.8 12.9 0.00 0.00 0.00 33 1007.2
20260504213953 22 183 4.8 20.9 0.00 0.00 0.00 33 1007.2
20260504213453 22 159 9.7 20.9 0.00 0.00 0.00 34 1007.2
20260504212953 22 200 12.9 17.7 0.00 0.00 0.00 33 1007.2
20260504212453 22 185 6.4 20.9 0.00 0.00 0.00 32 1007.2
20260504211953 23 191 11.3 22.5 0.00 0.00 0.00 32 1007.2
20260504211453 22 173 6.4 25.7 0.00 0.00 0.00 32 1007.3
20260504210953 23 204 11.3 14.5 0.00 0.00 0.00 33 1007.3
20260504210453 23 142 4.8 22.5 0.00 0.00 0.00 33 1007.3
20260504205956 23 171 12.9 22.5 0.00 0.00 0.00 31 1007.2
20260504205453 23 169 6.4 19.3 0.00 0.00 0.00 31 1007.2
20260504204956 23 141 8.0 27.4 0.00 0.00 0.00 31 1007.2
20260504204453 23 148 17.7 22.5 0.00 0.00 0.00 33 1007.3
20260504203953 23 165 8.0 19.3 0.00 0.00 0.00 32 1007.3
20260504203453 23 188 11.3 27.4 0.00 0.00 0.00 31 1007.3
20260504202953 23 194 14.5 20.9 0.00 0.00 0.00 32 1007.3
20260504202456 23 165 8.0 20.9 0.00 0.00 0.00 31 1007.3
20260504201953 23 215 9.7 22.5 0.00 0.00 0.00 31 1007.3
20260504201453 22 141 9.7 19.3 0.00 0.00 0.00 32 1007.3
20260504200953 22 159 9.7 29.0 0.00 0.00 0.00 31 1007.3
20260504200453 22 163 4.8 19.3 0.00 0.00 0.00 32 1007.3
20260504195953 22 180 11.3 20.9 0.00 0.00 0.00 32 1007.7
20260504195453 22 135 4.8 19.3 0.00 0.00 0.00 30 1007.7
20260504194953 22 181 12.9 19.3 0.00 0.00 0.00 32 1007.7
20260504194453 22 180 11.3 27.4 0.00 0.00 0.00 31 1007.7
20260504193953 22 178 4.8 20.9 0.00 0.00 0.00 33 1007.7
20260504193456 22 194 6.4 16.1 0.00 0.00 0.00 33 1007.7
20260504192953 22 174 6.4 24.1 0.00 0.00 0.00 32 1008.1
20260504192453 22 170 8.0 20.9 0.00 0.00 0.00 30 1008.1
20260504191953 23 190 8.0 24.1 0.00 0.00 0.00 30 1008.1
20260504191453 23 208 4.8 22.5 0.00 0.00 0.00 31 1008.1
20260504190953 23 220 4.8 20.9 0.00 0.00 0.00 32 1008.1
20260504190453 23 144 8.0 24.1 0.00 0.00 0.00 31 1008.1
20260504185953 23 188 11.3 14.5 0.00 0.00 0.00 32 1008.3
20260504185453 23 177 6.4 25.7 0.00 0.00 0.00 31 1008.3
20260504184953 23 195 9.7 11.3 0.00 0.00 0.00 33 1008.3
20260504184453 22 123 8.0 22.5 0.00 0.00 0.00 32 1008.7
20260504183953 22 192 11.3 20.9 0.00 0.00 0.00 32 1008.7
20260504183453 22 338 3.2 24.1 0.00 0.00 0.00 31 1008.7
20260504182956 22 155 4.8 17.7 0.00 0.00 0.00 33 1008.7
20260504182453 22 163 3.2 19.3 0.00 0.00 0.00 33 1008.7
20260504181953 22 157 6.4 16.1 0.00 0.00 0.00 33 1008.7
20260504181456 22 188 8.0 20.9 0.00 0.00 0.00 33 1008.8
20260504180953 22 154 12.9 22.5 0.00 0.00 0.00 34 1008.8
20260504180453 22 191 11.3 24.1 0.00 0.00 0.00 33 1008.8
20260504175953 22 153 19.3 22.5 0.00 0.00 0.00 35 1009.2
20260504175456 22 193 11.3 22.5 0.00 0.00 0.00 33 1009.2
20260504174953 22 214 12.9 19.3 0.00 0.00 0.00 34 1009.2
20260504174453 22 206 9.7 16.1 0.00 0.00 0.00 35 1009.2
20260504173953 22 187 14.5 22.5 0.00 0.00 0.00 34 1009.2
20260504173453 22 163 12.9 19.3 0.00 0.00 0.00 34 1009.2
20260504172953 22 205 9.7 17.7 0.00 0.00 0.00 33 1009.3
20260504172453 22 206 8.0 16.1 0.00 0.00 0.00 35 1009.3
20260504171953 23 188 11.3 17.7 0.00 0.00 0.00 32 1009.3
20260504171453 23 172 14.5 14.5 0.00 0.00 0.00 34 1009.6
20260504170953 23 190 11.3 20.9 0.00 0.00 0.00 35 1009.6
20260504170453 23 227 6.4 22.5 0.00 0.00 0.00 33 1009.6
20260504150953 20 195 1.6 14.5 0.00 0.00 0.00 46 1011.1
20260504150452 19 181 8.0 14.5 0.00 0.00 0.00 46 1011.1
20260504140953 17 182 9.7 16.1 0.00 0.00 0.00 53 1011.3
20260504140452 17 193 11.3 17.7 0.00 0.00 0.00 51 1011.3
20260504130452 15 194 11.3 16.1 0.00 0.00 0.00 59 1011.5
20260504110452 10 165 3.2 12.9 0.00 0.00 0.00 75 1012.4
20260504100452 7 190 4.8 11.3 0.00 0.00 0.00 76 1012.4
20260504081952 6 172 0.0 0.0 0.00 0.00 0.00 76 1012.0
20260504081455 6 172 0.0 0.0 0.00 0.00 0.00 75 1012.1
20260504080952 6 172 0.0 0.0 0.00 0.00 0.00 74 1012.1
20260504080452 6 172 0.0 0.0 0.00 0.00 0.00 74 1012.1
20260504050451 11 184 1.6 4.8 0.00 0.00 0.00 52 1011.8
20260504045951 11 180 3.2 4.8 0.00 0.00 0.00 51 1011.6
20260504045451 11 168 0.0 4.8 0.00 0.00 0.00 51 1011.6
20260504044951 11 167 4.8 4.8 0.00 0.00 0.00 51 1011.6
20260504044451 11 148 1.6 4.8 0.00 0.00 0.00 51 1011.4
20260504043951 11 178 0.0 4.8 0.00 0.00 0.00 50 1011.4
20260504043451 11 169 1.6 6.4 0.00 0.00 0.00 50 1011.4
20260504042951 11 169 3.2 4.8 0.00 0.00 0.00 50 1011.3
20260504042454 11 178 0.0 4.8 0.00 0.00 0.00 49 1011.3
20260504041951 11 182 3.2 6.4 0.00 0.00 0.00 48 1011.3
20260504041454 11 167 3.2 4.8 0.00 0.00 0.00 47 1011.3
20260504040951 12 184 0.0 4.8 0.00 0.00 0.00 47 1011.3
20260504040451 12 156 3.2 8.0 0.00 0.00 0.00 46 1011.3
20260504035951 12 204 3.2 8.0 0.00 0.00 0.00 46 1011.1
20260504035451 12 169 3.2 6.4 0.00 0.00 0.00 46 1011.1
20260504034951 12 198 6.4 8.0 0.00 0.00 0.00 45 1011.1
20260504034451 12 185 1.6 9.7 0.00 0.00 0.00 45 1011.1
20260504033951 12 200 3.2 6.4 0.00 0.00 0.00 45 1011.1
20260504033451 12 186 4.8 9.7 0.00 0.00 0.00 44 1011.1
20260504032951 12 205 4.8 8.0 0.00 0.00 0.00 44 1011.0
20260504032451 12 205 6.4 8.0 0.00 0.00 0.00 44 1011.0
20260504031951 12 188 3.2 12.9 0.00 0.00 0.00 44 1011.0
20260504031451 12 188 9.7 11.3 0.00 0.00 0.00 44 1011.0
20260504030951 12 187 3.2 6.4 0.00 0.00 0.00 44 1011.0
20260504030454 12 190 4.8 6.4 0.00 0.00 0.00 44 1011.0
20260504025951 12 177 3.2 8.0 0.00 0.00 0.00 44 1011.0
20260504025451 12 187 3.2 12.9 0.00 0.00 0.00 44 1011.0
20260504024951 12 190 3.2 9.7 0.00 0.00 0.00 44 1011.0
20260504024454 12 205 4.8 6.4 0.00 0.00 0.00 44 1011.0
20260504023951 12 183 3.2 6.4 0.00 0.00 0.00 44 1011.0
20260504023451 12 192 1.6 8.0 0.00 0.00 0.00 44 1011.0
20260504022951 12 186 3.2 6.4 0.00 0.00 0.00 44 1010.9
20260504022454 12 192 3.2 6.4 0.00 0.00 0.00 43 1010.9
20260504021951 12 207 3.2 8.0 0.00 0.00 0.00 43 1010.9
20260504021454 12 186 1.6 6.4 0.00 0.00 0.00 44 1010.9
20260504020951 12 193 0.0 6.4 0.00 0.00 0.00 43 1010.9
20260504020451 12 188 3.2 9.7 0.00 0.00 0.00 43 1010.9
20260504015951 12 182 1.6 9.7 0.00 0.00 0.00 43 1010.8
20260504015451 12 174 1.6 4.8 0.00 0.00 0.00 43 1010.8
20260504014954 13 164 0.0 3.2 0.00 0.00 0.00 43 1010.8
20260504014451 13 170 3.2 6.4 0.00 0.00 0.00 42 1010.6
20260504013954 13 173 3.2 3.2 0.00 0.00 0.00 42 1010.6
20260504013451 13 179 1.6 6.4 0.00 0.00 0.00 41 1010.6
20260504012951 13 208 0.0 0.0 0.00 0.00 0.00 41 1010.4
20260504012451 13 173 0.0 0.0 0.00 0.00 0.00 41 1010.4
20260504011951 13 190 0.0 1.6 0.00 0.00 0.00 40 1010.4
20260504011454 13 190 0.0 3.2 0.00 0.00 0.00 40 1010.3
20260504010951 13 190 1.6 4.8 0.00 0.00 0.00 39 1010.3
20260504010451 13 180 1.6 4.8 0.00 0.00 0.00 38 1010.3
20260504005951 13 197 1.6 4.8 0.00 0.00 0.00 38 1010.1
20260504005451 13 202 3.2 3.2 0.00 0.00 0.00 37 1010.1
20260504004951 14 194 1.6 6.4 0.00 0.00 0.00 37 1010.1
20260504004451 14 174 3.2 4.8 0.00 0.00 0.00 37 1009.9
20260504003951 14 240 1.6 6.4 0.00 0.00 0.00 36 1009.9
20260504003451 14 196 3.2 8.0 0.00 0.00 0.00 36 1009.9
20260504002951 14 205 3.2 9.7 0.00 0.00 0.00 36 1009.8
20260504002451 14 183 3.2 9.7 0.00 0.00 0.00 35 1009.8
20260504001951 15 198 3.2 4.8 0.00 0.00 0.00 36 1009.8
20260504001451 15 207 3.2 8.0 0.00 0.00 0.00 35 1009.6
20260504000951 15 209 4.8 6.4 0.00 0.00 0.00 34 1009.6
20260504000451 15 216 0.0 4.8 0.00 0.00 0.00 34 1009.6
20260503235951 15 233 1.6 9.7 0.00 0.00 0.00 34 1009.4
20260503235451 15 247 3.2 8.0 0.00 0.00 0.00 33 1009.4
20260503234951 15 229 3.2 11.3 0.00 0.00 0.00 34 1009.4
20260503234451 15 159 1.6 9.7 0.00 0.00 0.00 33 1009.3
20260503233951 15 225 4.8 11.3 0.00 0.00 0.00 33 1009.3
20260503233454 15 284 8.0 17.7 0.00 0.00 0.00 34 1009.3
20260503232951 15 296 3.2 12.9 0.00 0.00 0.00 32 1009.3
20260503232451 15 286 9.7 12.9 0.00 0.00 0.00 32 1009.3
20260503231951 15 209 4.8 11.3 0.00 0.00 0.00 32 1009.3
20260503231451 15 257 6.4 17.7 0.00 0.00 0.00 31 1009.0
20260503230954 16 242 1.6 9.7 0.00 0.00 0.00 32 1009.0
20260503230454 16 265 6.4 9.7 0.00 0.00 0.00 31 1009.0
20260503225951 16 217 1.6 12.9 0.00 0.00 0.00 31 1009.2
20260503225451 16 287 4.8 11.3 0.00 0.00 0.00 31 1009.2
20260503224951 16 259 3.2 16.1 0.00 0.00 0.00 31 1009.2
20260503224451 16 273 12.9 17.7 0.00 0.00 0.00 30 1009.0
20260503223951 16 269 20.9 27.4 0.00 0.00 0.00 31 1009.0
20260503223454 16 311 3.2 16.1 0.00 0.00 0.00 31 1009.0
20260503222951 16 204 4.8 20.9 0.00 0.00 0.00 30 1008.9
20260503222451 16 225 6.4 17.7 0.00 0.00 0.00 31 1008.9
20260503221951 16 209 4.8 19.3 0.00 0.00 0.00 32 1008.9
20260503221451 16 269 8.0 20.9 0.00 0.00 0.00 30 1008.9
20260503220951 16 290 9.7 20.9 0.00 0.00 0.00 30 1008.9
20260503220453 16 263 17.7 24.1 0.00 0.00 0.00 30 1008.9
20260503215951 16 281 12.9 19.3 0.00 0.00 0.00 31 1009.3
20260503215451 16 262 11.3 19.3 0.00 0.00 0.00 30 1009.3